User: anonymous
Location: Unspecified
(0.0000°N, 0.0000°E)
Time: 06:24:10
(UTC+02:00)
Language:

Meteor 1-10 Rocket - Orbit

View from above orbital plane
View from above orbital plane
View from above satellite
View from above satellite

Ground track
Ground track

The orbit data is extracted from the following two-line orbital elements,

1 05732U 71120B   14292.66257190  .00000077  00000-0  39215-4 0  4018
2 05732 081.2520 341.5574 0050354 253.7839 219.0515 14.05837101202423
Epoch (UTC): 19 October 2014 15:54:06
Eccentricity: 0.0050354
inclination: 81.2520°
perigee height: 837 km
apogee height: 910 km
right ascension of ascending node: 341.5574°
argument of perigee: 253.7839°
revolutions per day: 14.05837101
mean anomaly at epoch: 219.0515°
orbit number at epoch: 20242

The dashed part of the orbit path shows where the satellite is in the earth's shadow,  

DLR